Temperature
16 16 16 17 13 11 13 14 14 14 14 14 14 14 13 13 14 14 13 14 14 14 14 14 14 14 14 14 15 15 15 15 15 15 15 15 15 15 15 15 16 15 16 15 15 15 15 15 15
16 16 16 16 12 12 13 13 13 14 14 14 14 14 13 12 13 13 13 13 13 14 14 14 14 14 14 14 14 14 15 15 15 15 15 15 15 15 15 15 15 15 15 15 15 15 15 15 15
15 16 16 11 11 12 14 14 13 14 14 14 13 13 12 12 13 13 13 13 13 13 13 14 14 14 14 14 14 14 14 14 15 15 15 15 15 15 15 15 15 15 15 15 15 15 15 15 15
15 15 14 11 12 12 13 13 13 13 14 13 13 12 12 12 12 13 13 13 13 13 13 13 13 14 14 14 14 14 14 14 14 14 15 15 15 15 15 15 15 15 15 15 15 15 15 15 15
15 15 11 11 12 12 12 12 13 13 13 13 12 11 11 12 12 12 13 13 13 13 13 13 13 13 13 13 13 13 13 14 14 14 14 14 14 14 14 14 14 15 15 15 15 15 15 15 14
15 11 10 11 12 12 11 13 13 12 12 12 12 11 11 12 12 12 12 12 12 12 13 13 13 13 13 13 13 13 13 13 14 14 14 14 14 14 14 14 14 14 14 14 14 14 14 14 14
13 9 10 11 11 12 12 13 12 11 11 11 12 11 11 12 12 12 12 12 12 12 12 12 12 12 12 12 13 13 13 13 13 13 13 14 14 14 14 14 14 14 14 14 14 14 14 14 14
13 9 10 10 11 12 12 12 12 12 11 11 12 10 11 11 11 12 12 12 12 12 12 12 12 12 12 12 12 12 13 13 13 13 13 13 13 14 13 14 14 14 14 14 14 14 14 14 14
13 9 9 10 11 11 12 11 11 11 11 11 11 11 11 11 11 11 11 11 11 12 12 12 12 12 12 12 12 12 12 12 12 12 12 13 13 13 13 13 13 13 14 14 14 14 14 14 13
11 9 10 11 11 11 11 11 11 11 10 10 10 10 11 11 11 11 11 11 11 11 11 11 11 11 11 11 11 11 12 12 12 12 12 12 12 12 13 13 13 13 13 13 13 13 13 13 13
9 9 10 10 11 11 10 10 10 10 9 10 10 10 10 10 10 11 11 11 11 11 11 11 11 11 11 11 11 11 11 11 11 11 11 12 12 12 12 12 12 13 13 13 13 13 13 13 13
9 9 10 10 11 11 10 10 9 9 10 11 10 10 10 10 10 10 10 10 10 10 11 10 10 10 10 10 11 11 11 11 11 11 11 11 11 11 12 12 12 12 12 12 12 12 12 12 12
8 9 9 10 10 10 9 9 9 9 10 10 10 10 10 10 10 10 10 10 10 10 10 10 10 10 10 10 10 10 10 10 10 10 11 11 11 11 11 11 11 12 11 12 12 12 12 12 12
8 8 9 9 9 9 9 8 8 8 9 9 9 9 9 9 9 9 9 9 9 9 9 10 9 10 10 10 10 10 10 10 10 10 10 10 10 11 11 11 11 11 11 11 11 11 11 11 11
9 8 8 8 8 8 8 8 7 8 9 8 8 8 8 9 9 9 9 9 9 9 9 9 9 9 9 9 9 9 9 9 9 10 10 10 10 10 10 10 10 10 10 11 11 11 11 11 11
8 7 7 8 8 8 8 8 7 8 8 7 7 8 8 8 8 9 9 9 9 9 9 9 9 9 9 9 9 9 9 9 9 9 9 9 9 9 10 10 10 10 10 10 10 10 10 10 10
6 6 7 7 7 7 7 6 6 7 7 6 6 7 7 7 8 8 8 8 8 8 8 8 8 8 8 8 8 8 8 8 8 8 8 8 9 9 9 9 9 9 9 9 9 9 10 10 10
6 6 6 7 7 6 6 5 6 6 6 5 6 6 6 7 7 8 8 8 8 8 8 8 8 8 8 8 8 8 8 8 8 8 8 8 8 8 8 8 8 8 8 8 9 9 9 9 9
6 6 6 6 6 6 5 5 5 5 5 4 5 5 6 6 7 7 7 7 7 7 7 7 7 7 7 7 7 7 7 7 7 7 7 7 8 8 8 8 8 8 8 8 8 8 8 8 8
6 6 5 6 6 6 5 4 5 4 4 4 5 5 5 5 6 6 6 6 6 6 6 7 7 7 7 7 7 7 7 7 7 7 7 7 7 7 7 7 7 7 7 7 7 7 8 8 8
6 5 5 5 5 5 4 4 4 4 4 4 4 5 5 5 5 5 5 6 6 6 6 6 6 6 6 6 6 6 6 6 6 6 6 6 7 6 6 6 6 6 7 7 7 7 7 7 7
5 6 5 5 4 4 4 4 4 3 3 3 3 4 4 4 4 4 5 5 5 5 5 5 5 6 6 6 6 6 5 5 6 6 6 6 6 6 6 6 6 6 6 6 6 6 6 6 6
5 5 4 4 4 3 3 3 4 3 3 3 3 3 3 4 4 4 4 4 5 5 5 5 5 5 5 5 5 5 5 5 5 5 5 5 5 5 5 5 5 5 5 5 5 5 6 6 6
4 4 3 2 2 3 3 3 3 2 3 3 2 3 3 3 3 3 4 4 4 4 4 4 4 4 4 4 4 4 4 4 4 5 5 5 4 4 4 4 5 5 5 5 5 5 5 5 5
4 3 2 2 2 2 3 3 3 2 2 2 2 2 2 3 3 3 3 3 4 4 4 4 4 4 4 4 4 4 4 4 4 4 4 4 4 4 4 4 4 4 4 4 4 4 4 4 5
4 3 3 3 2 2 2 2 2 2 2 2 2 2 2 2 2 2 2 3 3 3 3 3 3 3 3 3 3 3 3 3 3 3 3 3 3 3 3 3 3 3 3 4 4 4 4 4 4
3 2 2 1 0 1 1 1 1 2 1 1 1 1 1 1 1 2 2 2 2 2 2 3 3 3 3 3 3 3 3 2 2 2 3 3 3 3 3 3 3 3 3 3 3 3 3 3 3
3 2 1 1 2 2 2 1 2 1 1 1 0 0 1 1 1 1 1 2 2 2 2 2 2 2 2 2 2 2 2 2 2 2 2 2 2 2 2 2 2 2 2 2 2 2 2 2 2
2 1 1 0 1 1 1 2 2 1 1 0 -0 0 0 1 1 1 1 1 1 1 1 2 1 2 2 2 2 2 2 2 1 1 1 1 1 1 2 2 2 2 2 2 2 2 2 2 2
2 1 0 1 0 -0 0 2 1 0 -0 -0 -0 -0 0 0 0 0 0 0 0 1 1 1 1 1 1 1 1 1 1 1 1 1 1 1 1 1 1 1 1 1 1 1 1 1 1 1 1
Wind_Speed
8 5 3 4 5 5 2 4 2 2 1 0 1 3 5 4 3 2 1 3 3 2 2 2 2 3 5 6 6 7 7 7 7 7 6 6 6 6 6 6 7 7 8 8 9 9 10 10 10
3 2 5 5 5 1 4 4 3 3 2 2 3 3 4 2 1 2 1 3 3 3 3 2 2 4 5 6 6 6 7 6 6 6 6 6 5 5 5 5 6 6 7 7 8 9 9 9 9
2 4 5 5 4 5 4 3 4 1 1 2 2 3 2 1 1 0 1 2 3 4 4 3 3 4 5 6 6 5 6 6 5 5 5 5 5 4 4 4 5 5 6 7 7 8 8 8 9
3 5 5 4 3 4 3 2 1 1 2 3 3 2 1 2 1 1 1 2 4 4 5 4 5 5 5 5 5 5 5 5 5 5 4 4 4 4 4 3 4 5 5 6 7 7 7 7 8
4 5 4 1 3 3 3 2 1 1 0 1 3 2 0 3 3 2 3 3 4 4 5 5 5 5 5 5 5 5 5 5 5 5 4 4 4 4 4 3 4 4 5 6 6 7 8 8 8
5 4 3 3 4 3 3 2 1 1 1 1 2 3 1 2 2 2 3 4 4 4 5 5 6 6 6 6 6 6 6 5 5 5 5 5 4 4 3 3 4 4 4 5 6 7 7 8 8
4 4 4 4 2 2 2 0 2 2 1 0 1 3 1 1 1 2 3 4 5 6 6 6 6 7 7 7 7 7 6 6 5 5 5 5 5 4 3 3 3 4 4 5 6 6 7 7 8
4 5 2 3 3 3 2 1 1 2 1 1 2 3 2 2 1 3 4 5 5 5 5 6 6 7 7 7 7 7 8 7 7 7 7 7 7 6 4 3 3 3 3 4 5 6 7 7 8
4 4 3 5 5 3 1 1 2 2 3 2 1 0 1 2 4 5 4 4 4 4 4 5 5 5 5 6 6 7 7 7 7 7 7 7 7 7 5 5 4 3 3 3 5 6 6 7 7
4 4 5 3 3 2 0 1 0 2 2 1 2 3 3 4 4 4 2 1 1 2 2 3 4 4 5 4 5 6 6 6 7 7 7 6 6 6 5 5 5 4 3 4 5 6 5 5 5
3 4 3 1 1 1 1 1 1 2 0 2 2 1 2 3 3 2 1 1 0 1 2 2 3 4 4 4 4 5 5 5 6 7 6 6 6 6 5 5 4 5 5 4 5 6 4 4 5
2 1 1 1 0 1 1 1 1 1 3 1 2 3 2 2 2 2 2 1 0 1 1 2 2 3 4 4 4 4 4 4 5 5 6 5 4 4 4 4 4 4 4 4 4 4 4 4 4
1 1 1 1 1 1 2 1 1 2 2 1 2 2 2 1 1 1 1 1 0 0 1 1 2 2 3 3 3 3 3 3 3 4 5 5 4 3 3 4 4 4 4 4 3 3 3 3 4
1 1 2 2 1 0 1 2 1 3 0 2 2 1 0 1 1 1 0 0 1 1 0 1 2 2 3 3 2 3 3 3 4 4 4 4 4 3 3 3 4 4 3 3 2 2 3 2 3
1 1 3 2 1 1 1 3 3 3 2 2 1 1 2 2 1 1 2 2 2 1 0 1 1 3 3 3 3 3 3 3 3 3 4 4 4 3 3 3 3 3 3 3 3 3 3 3 3
2 2 2 3 0 1 2 6 3 1 2 0 1 2 3 3 3 3 2 1 1 0 1 1 2 3 3 3 3 3 3 4 3 3 3 3 4 4 3 2 2 3 3 3 2 2 2 2 2
2 1 4 4 1 1 2 6 4 1 1 2 2 2 3 4 4 4 3 1 1 1 1 2 2 2 2 2 3 3 4 4 4 4 4 3 4 4 3 2 2 3 3 3 2 1 2 2 1
3 3 3 4 2 1 3 8 6 3 3 3 3 3 2 3 5 4 4 2 1 1 2 2 3 3 2 2 2 3 3 3 4 4 3 3 4 4 3 3 3 3 2 2 2 2 2 1 1
2 3 5 5 3 2 5 9 9 4 3 3 3 3 3 3 3 3 3 3 3 3 3 2 3 2 2 1 0 0 1 1 2 3 4 3 4 4 3 3 2 2 1 1 1 1 2 1 1
2 3 4 5 2 2 5 8 7 4 4 5 5 5 4 2 3 4 4 3 3 2 2 2 1 1 1 0 0 0 1 1 1 2 4 4 4 3 3 3 1 1 1 2 2 1 1 1 1
3 4 4 5 5 2 3 6 5 3 2 1 2 3 2 2 2 3 3 3 3 2 1 0 0 1 1 1 1 2 2 1 2 2 2 3 3 3 2 2 2 1 1 0 0 1 1 1 0
4 3 3 3 2 4 0 5 6 3 3 2 3 3 3 2 1 2 3 3 3 2 2 2 1 1 1 1 2 2 1 0 1 1 2 3 3 2 2 1 1 1 0 0 1 0 1 1 1
3 1 1 2 2 3 2 3 7 2 3 4 4 4 3 2 1 2 2 2 2 2 2 2 2 1 1 1 1 1 0 1 1 1 2 2 2 2 2 1 1 0 0 1 1 1 1 1 1
1 3 2 2 1 4 5 4 6 3 4 3 3 4 3 2 2 2 3 3 3 3 3 2 2 2 1 0 0 0 1 1 1 2 2 2 2 2 2 2 1 1 1 1 1 1 1 2 1
3 3 3 4 2 6 2 4 7 5 3 4 4 3 2 1 2 3 4 5 4 4 4 3 2 2 2 1 1 1 1 1 2 2 2 2 2 2 3 2 2 2 2 1 1 1 2 2 2
1 4 4 3 4 5 3 6 6 3 3 2 1 1 1 1 2 2 2 3 3 3 3 3 3 3 2 1 2 1 1 1 2 2 2 3 3 3 3 2 2 2 2 2 1 1 2 2 2
2 2 3 3 1 4 5 6 7 3 4 4 3 2 2 2 2 2 3 3 3 3 3 3 3 4 3 2 2 2 2 2 3 3 3 3 3 3 3 2 2 2 2 2 1 2 2 2 2
2 4 3 2 1 4 6 5 5 4 4 4 4 4 3 3 3 3 4 4 4 3 3 3 3 4 3 2 2 2 2 3 3 3 3 3 4 3 3 3 3 2 2 2 2 2 2 2 2
2 2 2 2 3 3 4 6 3 4 4 4 4 4 3 3 3 4 4 4 4 3 3 3 4 4 3 3 3 3 3 3 3 3 3 3 3 3 3 3 3 3 3 2 2 3 3 3 3
2 3 4 3 4 4 4 7 2 2 2 3 3 4 4 3 3 3 3 3 3 3 3 3 4 4 4 3 3 3 3 2 3 3 3 3 3 3 3 3 3 3 3 3 3 3 3 3 3
Wind_Direction
347 1 60 56 57 55 226 247 235 256 232 13 49 108 129 132 155 176 349 3 6 357 350 357 62 84 88 82 75 70 69 72 71 71 74 81 86 91 102 109 112 118 119 116 114 113 113 112 109
346 18 54 61 95 140 259 246 230 235 191 101 58 69 89 84 47 72 0 338 4 12 17 20 69 105 98 88 80 73 69 69 71 69 68 74 84 91 95 108 113 117 121 121 120 117 114 115 116
22 46 80 81 128 184 219 226 219 292 43 93 72 46 98 111 57 4 320 347 22 24 27 33 88 105 98 91 83 78 73 70 71 71 67 72 76 86 94 105 115 118 121 126 124 120 119 117 118
65 48 58 85 198 220 222 256 234 21 29 54 107 78 33 14 334 299 33 50 59 32 33 44 81 92 89 85 82 76 74 70 66 66 66 71 72 74 88 95 117 123 123 128 130 127 124 122 120
57 77 74 69 237 251 258 276 219 140 50 44 113 130 305 357 18 61 72 70 74 45 36 49 66 79 83 78 75 68 67 65 62 59 59 62 64 68 79 91 114 124 134 132 132 136 132 129 126
58 71 110 211 238 272 280 279 145 111 108 74 123 139 210 13 48 69 76 63 59 56 40 49 59 63 73 72 65 59 57 57 55 53 51 49 53 60 77 86 108 113 118 129 132 137 136 136 135
108 110 169 192 217 268 277 352 127 121 102 285 163 138 256 341 27 82 72 63 54 47 41 36 47 58 63 65 62 57 53 50 46 42 43 42 44 53 65 73 92 109 121 128 129 131 134 135 139
120 115 149 194 197 240 298 48 79 113 162 30 107 150 225 259 96 80 65 55 52 45 39 31 40 52 55 56 57 55 51 48 45 41 40 42 40 38 45 44 68 95 105 128 136 135 134 136 135
91 95 194 207 194 224 354 67 15 49 97 47 48 337 283 111 101 86 61 40 37 32 25 28 36 44 51 56 51 49 48 44 44 40 36 38 38 33 30 30 45 68 79 103 127 134 130 130 131
96 164 213 209 187 181 76 95 69 61 50 35 30 21 60 104 116 110 97 75 34 2 0 19 31 37 48 50 46 44 47 45 43 42 37 37 37 32 29 25 33 50 61 88 103 111 115 113 106
132 183 211 238 182 151 131 18 31 115 257 222 213 210 95 123 125 135 141 153 228 315 7 15 26 36 50 44 45 42 43 45 43 39 37 39 38 31 28 29 28 32 46 61 73 71 75 90 94
133 243 225 261 4 83 154 135 40 189 236 239 173 154 141 149 172 188 194 212 10 36 17 15 27 41 47 50 49 48 45 45 42 39 39 43 38 30 26 36 33 37 40 50 60 72 73 83 95
175 264 320 342 34 93 105 155 214 249 273 47 91 112 143 172 236 242 189 141 78 44 346 18 39 46 48 51 41 47 43 43 43 45 41 50 44 36 41 38 37 40 43 51 61 76 82 80 88
204 242 308 322 324 316 166 263 194 249 125 72 72 68 243 239 253 321 16 165 213 232 262 45 63 54 57 59 47 40 40 44 48 45 42 47 56 55 54 50 41 35 39 47 69 91 92 79 87
106 30 339 309 222 218 117 302 223 227 108 75 22 338 329 312 314 270 247 224 225 225 140 97 92 63 64 59 46 45 44 49 46 40 38 49 60 63 63 56 41 30 37 52 69 72 85 90 81
63 61 303 298 191 195 146 263 254 144 109 342 313 329 328 318 310 298 290 265 238 156 93 68 66 62 59 54 47 48 47 52 43 41 41 47 53 58 63 57 36 28 49 61 73 81 89 95 100
45 251 259 294 294 119 181 253 256 253 171 249 279 297 310 319 324 324 327 288 231 142 106 77 65 67 59 54 46 49 50 48 43 40 39 43 49 53 61 55 40 43 55 56 57 67 92 114 112
233 242 261 268 304 328 255 263 275 251 221 237 256 276 297 310 304 321 349 352 33 77 85 78 69 57 53 55 47 48 46 36 39 38 31 43 48 50 57 57 42 49 57 53 58 65 56 99 127
195 221 266 271 295 287 258 271 279 266 239 248 257 261 274 287 307 350 10 18 38 51 61 66 69 54 63 63 97 49 357 359 18 25 21 32 43 48 53 47 46 46 66 65 64 71 61 38 48
202 249 268 292 325 280 276 277 272 259 233 230 236 248 255 292 341 355 7 20 35 38 47 60 75 74 67 51 198 215 243 305 328 12 15 18 29 36 47 50 45 40 53 57 57 63 76 20 52
240 222 245 275 327 343 316 293 268 271 238 236 252 250 256 254 291 333 355 4 19 22 359 346 60 77 43 35 63 55 41 11 6 358 353 3 14 22 36 44 47 36 80 143 95 98 148 221 339
256 241 241 263 300 288 279 285 276 265 270 259 268 270 277 289 314 335 349 355 354 344 345 337 0 51 34 60 85 105 113 273 282 301 311 339 0 8 13 34 45 31 20 276 248 186 211 194 223
228 292 259 254 217 283 252 241 282 294 267 258 260 263 272 285 300 327 339 336 339 350 1 347 349 6 16 45 111 119 90 258 293 325 326 331 348 353 351 7 31 337 304 269 270 251 221 214 216
187 32 28 38 96 265 240 210 276 249 244 264 264 269 274 296 336 353 2 5 360 4 10 4 351 342 349 341 269 170 231 274 325 326 318 320 325 329 332 338 342 300 275 263 259 239 222 223 219
78 73 11 350 329 258 266 221 255 254 247 239 250 264 278 312 359 3 6 3 356 357 357 351 344 332 328 315 295 273 253 245 251 270 276 291 304 302 300 306 290 278 267 261 242 230 236 227 217
181 146 162 231 252 285 297 244 259 275 294 298 282 293 20 357 338 337 339 345 341 339 345 346 328 315 307 303 303 303 285 270 269 272 269 269 270 273 287 292 285 280 278 272 245 237 242 236 226
138 179 166 153 261 278 270 282 297 316 339 350 354 8 337 319 311 313 320 331 331 320 320 315 314 314 310 306 307 296 290 278 274 280 281 279 278 284 287 284 279 281 272 258 245 239 239 236 235
150 149 107 133 220 273 285 271 261 285 303 316 324 321 309 316 320 319 319 321 320 312 310 319 318 308 306 309 297 297 290 284 283 284 283 284 285 288 286 285 274 273 271 256 235 243 237 231 246
131 126 144 162 194 210 276 271 241 232 252 272 278 289 295 293 296 302 307 311 318 324 330 330 329 323 318 314 310 310 302 300 298 290 290 288 286 289 279 276 271 267 263 258 241 243 233 230 246
185 190 167 188 239 216 243 272 266 238 272 277 288 307 308 302 301 298 301 312 320 321 325 326 326 323 319 318 322 321 322 323 315 306 303 298 290 292 284 280 275 268 262 250 236 239 237 226 232
Height
1493 1494 1495 1497 1502 1514 1515 1509 1506 1504 1503 1502 1502 1503 1504 1507 1510 1514 1510 1509 1510 1511 1512 1513 1514 1515 1516 1516 1517 1517 1518 1518 1519 1519 1519 1520 1521 1522 1522 1523 1524 1524 1525 1525 1526 1526 1527 1528 1528
1493 1494 1497 1498 1509 1519 1515 1507 1505 1503 1502 1502 1502 1503 1503 1505 1507 1508 1507 1508 1509 1511 1512 1513 1514 1515 1515 1516 1516 1517 1517 1518 1518 1519 1519 1520 1520 1521 1522 1523 1523 1524 1524 1525 1526 1526 1527 1527 1528
1493 1495 1497 1501 1512 1515 1509 1503 1503 1502 1501 1502 1503 1504 1505 1506 1507 1507 1508 1508 1509 1510 1511 1512 1513 1514 1514 1515 1516 1516 1517 1517 1517 1518 1518 1519 1520 1520 1521 1522 1522 1523 1524 1525 1525 1526 1526 1527 1528
1494 1496 1498 1506 1510 1508 1505 1502 1501 1501 1501 1502 1503 1505 1505 1507 1507 1508 1508 1508 1509 1510 1511 1512 1512 1513 1514 1514 1515 1515 1516 1516 1517 1517 1518 1518 1519 1519 1520 1521 1521 1522 1523 1524 1524 1525 1526 1527 1527
1494 1495 1504 1511 1508 1505 1502 1501 1501 1501 1502 1503 1503 1504 1505 1507 1507 1507 1508 1508 1509 1509 1510 1511 1512 1512 1513 1513 1514 1514 1515 1515 1516 1516 1517 1517 1518 1518 1519 1520 1520 1521 1522 1523 1523 1524 1525 1526 1527
1495 1497 1510 1512 1507 1504 1501 1500 1500 1501 1502 1503 1504 1504 1505 1506 1506 1507 1507 1508 1509 1509 1510 1510 1511 1512 1512 1513 1513 1513 1514 1514 1515 1515 1515 1516 1516 1517 1518 1519 1519 1520 1520 1521 1522 1523 1524 1525 1526
1496 1502 1508 1508 1507 1504 1501 1499 1500 1501 1502 1503 1503 1504 1504 1505 1506 1506 1507 1508 1508 1509 1509 1510 1510 1511 1511 1512 1512 1512 1513 1513 1513 1514 1514 1514 1515 1515 1516 1517 1518 1518 1519 1520 1521 1522 1523 1524 1525
1495 1501 1506 1508 1506 1503 1500 1499 1500 1501 1502 1503 1503 1504 1504 1505 1505 1505 1506 1507 1507 1508 1508 1509 1509 1510 1510 1510 1511 1511 1511 1512 1512 1512 1513 1513 1514 1514 1515 1516 1516 1517 1517 1518 1519 1520 1521 1522 1524
1495 1505 1508 1505 1503 1501 1499 1499 1500 1501 1501 1502 1502 1503 1503 1504 1504 1505 1505 1506 1506 1506 1507 1507 1508 1508 1509 1509 1509 1509 1510 1510 1510 1511 1511 1512 1512 1513 1513 1514 1514 1515 1516 1517 1517 1518 1519 1521 1522
1495 1505 1502 1499 1499 1499 1499 1499 1500 1501 1501 1502 1502 1502 1503 1503 1503 1503 1503 1504 1504 1505 1505 1506 1506 1507 1507 1507 1507 1508 1508 1508 1509 1509 1510 1510 1510 1511 1512 1512 1513 1514 1514 1515 1516 1517 1518 1520 1521
1496 1500 1498 1498 1498 1498 1499 1500 1500 1500 1501 1501 1501 1501 1502 1502 1502 1502 1503 1503 1503 1504 1504 1504 1505 1505 1505 1505 1506 1506 1506 1507 1507 1508 1508 1508 1509 1509 1510 1510 1511 1512 1512 1513 1514 1515 1516 1518 1519
1497 1497 1498 1497 1497 1498 1498 1499 1500 1500 1500 1500 1500 1500 1500 1501 1501 1501 1501 1502 1502 1502 1503 1503 1504 1504 1504 1504 1504 1504 1504 1505 1505 1506 1506 1507 1507 1507 1508 1508 1509 1509 1510 1511 1512 1513 1514 1515 1517
1497 1497 1497 1497 1497 1497 1498 1499 1499 1499 1499 1499 1499 1500 1499 1499 1500 1500 1501 1501 1501 1501 1501 1502 1502 1502 1502 1502 1502 1502 1502 1503 1503 1504 1504 1505 1505 1505 1505 1506 1506 1507 1508 1509 1509 1511 1512 1513 1514
1496 1497 1497 1496 1496 1497 1498 1498 1498 1497 1498 1498 1498 1498 1498 1498 1499 1499 1499 1499 1499 1499 1500 1500 1500 1500 1500 1500 1500 1500 1500 1501 1501 1502 1502 1502 1503 1503 1503 1503 1504 1505 1505 1506 1507 1509 1510 1511 1512
1496 1498 1497 1496 1496 1496 1497 1498 1497 1495 1496 1496 1496 1496 1497 1497 1497 1497 1497 1497 1497 1498 1498 1498 1498 1498 1498 1498 1498 1498 1499 1499 1499 1500 1500 1500 1501 1501 1501 1501 1502 1503 1503 1504 1505 1506 1508 1509 1510
1497 1500 1501 1497 1496 1496 1500 1498 1495 1495 1495 1495 1495 1495 1495 1495 1495 1495 1495 1495 1495 1496 1496 1496 1496 1496 1497 1497 1497 1497 1497 1497 1497 1497 1498 1498 1498 1498 1499 1499 1500 1500 1501 1502 1503 1504 1505 1506 1508
1502 1504 1502 1499 1496 1496 1498 1497 1494 1494 1494 1493 1494 1494 1493 1493 1493 1493 1493 1493 1493 1494 1494 1494 1494 1494 1495 1495 1495 1495 1495 1495 1495 1495 1495 1496 1496 1496 1497 1497 1497 1498 1499 1499 1501 1501 1503 1504 1505
1504 1504 1502 1500 1497 1497 1498 1495 1492 1492 1492 1492 1492 1492 1492 1491 1491 1491 1490 1490 1491 1491 1492 1492 1492 1492 1493 1493 1493 1493 1493 1493 1494 1493 1493 1494 1494 1494 1495 1495 1495 1496 1497 1497 1499 1499 1500 1501 1503
1500 1502 1502 1499 1497 1498 1496 1494 1491 1490 1491 1490 1490 1490 1490 1489 1490 1489 1489 1489 1489 1489 1489 1490 1490 1490 1491 1491 1490 1490 1491 1491 1491 1491 1491 1491 1492 1492 1493 1493 1493 1494 1495 1496 1496 1497 1498 1499 1500
1501 1502 1502 1498 1496 1497 1497 1494 1490 1489 1488 1488 1488 1488 1488 1487 1487 1487 1487 1487 1487 1487 1487 1488 1488 1488 1488 1488 1488 1489 1489 1489 1489 1489 1489 1489 1489 1490 1490 1491 1491 1492 1493 1493 1494 1495 1495 1496 1497
1500 1501 1501 1500 1498 1497 1498 1493 1489 1487 1487 1487 1487 1486 1486 1486 1485 1485 1485 1485 1485 1485 1486 1486 1486 1486 1486 1487 1486 1486 1487 1487 1487 1487 1487 1487 1487 1487 1488 1489 1489 1489 1490 1491 1491 1492 1493 1494 1495
1499 1497 1498 1499 1502 1503 1501 1499 1489 1487 1486 1485 1485 1484 1484 1484 1484 1484 1484 1483 1483 1484 1484 1484 1484 1484 1484 1484 1484 1484 1484 1484 1484 1484 1485 1485 1485 1485 1485 1486 1486 1487 1487 1488 1489 1490 1490 1491 1492
1498 1497 1499 1499 1501 1505 1502 1503 1490 1488 1486 1484 1483 1483 1483 1483 1483 1483 1483 1482 1482 1482 1482 1482 1482 1482 1482 1482 1483 1482 1482 1482 1482 1482 1482 1482 1482 1482 1482 1483 1483 1484 1484 1485 1486 1486 1487 1488 1489
1497 1499 1501 1503 1505 1505 1499 1502 1492 1489 1485 1482 1481 1481 1481 1481 1481 1481 1481 1481 1481 1480 1481 1480 1480 1480 1480 1480 1480 1480 1480 1480 1480 1479 1479 1479 1479 1479 1480 1480 1480 1480 1481 1481 1482 1483 1484 1485 1485
1498 1504 1510 1510 1513 1506 1500 1498 1491 1483 1481 1480 1479 1479 1479 1480 1480 1480 1480 1479 1479 1479 1479 1478 1478 1478 1478 1478 1478 1478 1477 1477 1477 1477 1476 1476 1476 1476 1476 1477 1477 1477 1478 1478 1479 1479 1480 1481 1481
1499 1502 1511 1512 1514 1507 1502 1497 1487 1481 1480 1478 1478 1478 1478 1478 1479 1478 1478 1478 1478 1478 1477 1476 1476 1476 1475 1475 1475 1475 1475 1475 1474 1474 1474 1473 1473 1473 1474 1474 1474 1474 1474 1475 1475 1475 1476 1477 1478
1500 1503 1504 1513 1516 1514 1503 1496 1486 1480 1479 1478 1477 1477 1477 1477 1478 1477 1477 1477 1476 1475 1475 1474 1473 1473 1473 1472 1472 1472 1472 1472 1471 1471 1471 1470 1470 1470 1470 1470 1470 1471 1471 1471 1472 1472 1472 1473 1474
1499 1502 1508 1512 1512 1508 1500 1496 1488 1482 1480 1478 1477 1477 1476 1476 1476 1476 1475 1475 1474 1473 1473 1472 1471 1471 1470 1470 1469 1469 1469 1468 1468 1468 1468 1467 1467 1467 1467 1467 1467 1467 1467 1467 1468 1468 1469 1469 1470
1501 1503 1505 1510 1510 1508 1505 1491 1481 1480 1478 1478 1477 1476 1475 1475 1475 1474 1473 1473 1472 1471 1471 1470 1469 1468 1467 1467 1466 1466 1465 1465 1465 1465 1464 1464 1464 1464 1463 1463 1463 1463 1464 1464 1464 1464 1465 1465 1466
1498 1500 1504 1507 1509 1510 1505 1492 1478 1478 1477 1477 1476 1475 1474 1473 1473 1472 1471 1470 1470 1469 1468 1467 1466 1465 1464 1464 1463 1463 1462 1462 1462 1462 1461 1461 1461 1460 1460 1460 1460 1460 1460 1460 1460 1460 1461 1461 1462